Weather History for KIAG - January, 2013

Change the Weather History Date:

Tuesday, January 22, 2013

  Actual Average (KBUF) Record (KBUF)
Temperature  
Mean Temperature 8 °F 24 °F  
Max Temperature 12 °F 31 °F 70 °F (1906)
Min Temperature 5 °F 18 °F -7 °F (1976)
Degree Days  
Heating Degree Days 56 41  
Month to date heating degree days 880  
Since 1 July heating degree days 3295  
Cooling Degree Days 0 0  
Month to date cooling degree days 0  
Year to date cooling degree days 0  
Moisture  
Dew Point -5 °F    
Average Humidity 56    
Maximum Humidity 63    
Minimum Humidity 46    
Precipitation  
Precipitation 0.00 in 0.09 in 1.74 in (1902)
Month to date precipitation 2.35  
Year to date precipitation 2.35  
Snow  
Snow 0.00 in 0.70 in 6.70 in (2005)
Month to date snowfall 18.6  
Since 1 July snowfall 54.8  
Snow Depth -    
Sea Level Pressure  
Sea Level Pressure 30.14 in    
Wind  
Wind Speed 21 mph (West)    
Max Wind Speed 24 mph    
Max Gust Speed 32 mph    
Visibility 10 miles    
Events      
T = Trace of Precipitation, MM = Missing Value Source: NWS Daily Summary

Daily Weather History Graph

Daily Weather History Graph

Search for Another Location

Airport or City:

Trip Planner

Search our weather history database for the weather conditions in past years. The results will help you decide how hot, cold, wet, or windy it might be!

Date:

Astronomy

Jan. 22, 2013 Rise Set
Actual Time 7:39 AM EST 5:15 PM EST
Civil Twilight 7:09 AM EST 5:46 PM EST
Nautical Twilight 6:34 AM EST 6:20 PM EST
Astronomical Twilight 6:00 AM EST 6:54 PM EST
Moon 1:35 PM EST (1/22) 4:01 AM EST (1/22)
Length of Visible Light 10h 37m
Length of Day
9h 35m
Waxing Gibbous, 82% of the Moon is Illuminated
Jan 22
Waxing Gibbous
Jan 26
Full
Feb 3
Last Quarter
Feb 10
New
Feb 17
First Quarter

Hourly Weather History & Observations

Time (EST) Temp. Windchill Dew Point Humidity Pressure Visibility Wind Dir Wind Speed Gust Speed Precip Events Conditions
12:53 AM 10.0 °F -10.4 °F -2.9 °F 56% 29.97 in 10.0 mi West 24.2 mph 29.9 mph N/A   Clear
1:53 AM 9.0 °F -11.0 °F -2.9 °F 59% 29.99 in 10.0 mi West 21.9 mph 27.6 mph N/A   Partly Cloudy
2:53 AM 8.1 °F -10.7 °F -2.9 °F 61% 30.01 in 10.0 mi West 18.4 mph 24.2 mph N/A   Partly Cloudy
3:53 AM 7.0 °F -13.1 °F -4.0 °F 61% 30.02 in 10.0 mi West 20.7 mph - N/A   Clear
4:53 AM 6.1 °F -14.8 °F -5.1 °F 60% 30.03 in 10.0 mi West 21.9 mph 32.2 mph N/A   Clear
5:53 AM 6.1 °F -15.2 °F -5.1 °F 60% 30.05 in 10.0 mi West 23.0 mph 28.8 mph N/A   Clear
6:53 AM 6.1 °F -14.8 °F -5.1 °F 60% 30.08 in 10.0 mi West 21.9 mph 31.1 mph N/A   Mostly Cloudy
7:01 AM 6.8 °F -13.8 °F -5.8 °F 56% 30.00 in 10.0 mi West 21.9 mph 32.2 mph N/A   Scattered Clouds
7:53 AM 5.0 °F -17.1 °F -5.1 °F 63% 30.09 in 10.0 mi West 24.2 mph 32.2 mph N/A   Scattered Clouds
8:53 AM 6.1 °F -15.7 °F -4.0 °F 63% 30.12 in 10.0 mi West 24.2 mph 32.2 mph N/A   Mostly Cloudy
9:53 AM 7.0 °F -14.0 °F -4.0 °F 61% 30.15 in 10.0 mi West 23.0 mph 29.9 mph N/A   Mostly Cloudy
10:53 AM 9.0 °F -10.5 °F -2.9 °F 59% 30.17 in 10.0 mi WSW 20.7 mph 27.6 mph N/A   Mostly Cloudy
11:53 AM 10.9 °F -7.5 °F -4.0 °F 51% 30.16 in 10.0 mi West 19.6 mph 24.2 mph N/A   Mostly Cloudy
12:53 PM 10.9 °F -7.0 °F -4.0 °F 51% 30.15 in 10.0 mi West 18.4 mph 29.9 mph N/A   Mostly Cloudy
1:53 PM 10.9 °F -7.5 °F -4.0 °F 51% 30.15 in 10.0 mi West 19.6 mph 24.2 mph N/A   Mostly Cloudy
2:53 PM 12.0 °F -6.5 °F -4.0 °F 49% 30.16 in 10.0 mi West 20.7 mph 27.6 mph N/A   Mostly Cloudy
3:53 PM 10.9 °F -6.5 °F -6.0 °F 47% 30.18 in 10.0 mi West 17.3 mph 31.1 mph N/A   Mostly Cloudy
4:53 PM 10.0 °F -10.0 °F -7.1 °F 46% 30.20 in 10.0 mi West 23.0 mph 27.6 mph N/A   Mostly Cloudy
5:53 PM 9.0 °F -10.5 °F -7.1 °F 48% 30.22 in 10.0 mi West 20.7 mph 28.8 mph N/A   Mostly Cloudy
6:53 PM 8.1 °F -10.2 °F -6.0 °F 53% 30.24 in 10.0 mi West 17.3 mph 27.6 mph N/A   Scattered Clouds
7:53 PM 7.0 °F -12.1 °F -7.1 °F 53% 30.25 in 10.0 mi West 18.4 mph - N/A   Scattered Clouds
8:53 PM 7.0 °F -11.0 °F -6.0 °F 55% 30.26 in 10.0 mi West 16.1 mph 24.2 mph N/A   Scattered Clouds
9:53 PM 6.1 °F -13.3 °F -5.1 °F 60% 30.26 in 10.0 mi West 18.4 mph 24.2 mph N/A   Scattered Clouds
10:53 PM 6.1 °F -12.2 °F -5.1 °F 60% 30.25 in 10.0 mi West 16.1 mph 23.0 mph N/A   Scattered Clouds
11:53 PM 6.1 °F -10.9 °F -5.1 °F 60% 30.25 in 10.0 mi West 13.8 mph - N/A   Clear